Tucson, AZ

7:51 AM MST on September 15, 2019 (GMT -0700)
Tucson International

Weather History for KTUS - July, 2019

Change the Weather History Date:

Sunday, July 21, 2019

  Actual Average Record
Temperature  
Mean Temperature 93 °F 87 °F  
Max Temperature 104 °F 99 °F 110 °F (2006)
Min Temperature 81 °F 75 °F 64 °F (1913)
Degree Days  
Heating Degree Days 0 0  
Month to date heating degree days 0 0  
Since 1 June heating degree days 0 0  
Since 1 July heating degree days 0 0  
Cooling Degree Days 28 22  
Month to date cooling degree days 543 474  
Year to date cooling degree days 1528 1570  
Since 1 June cooling degree days 1156 1068  
Growing Degree Days 42 (Base 50)    
Moisture  
Dew Point 59 °F    
Average Humidity 35    
Maximum Humidity 49    
Minimum Humidity 18    
Precipitation  
Precipitation 0.00 in 0.08 in 1.35 in (1910)
Month to date precipitation 0.29 1.32  
Year to date precipitation 5.32 4.59  
Sea Level Pressure  
Sea Level Pressure 29.82 in    
Wind  
Wind Speed 9 mph (WSW)    
Max Wind Speed 20 mph    
Max Gust Speed 30 mph    
Visibility 10 miles    
Events Thunderstorm    
T = Trace of Precipitation, MM = Missing Value Source: NWS Daily Summary

Daily Weather History Graph

Daily Weather History Graph

Search for Another Location

Airport or City:

Astronomy

Jul. 21, 2019 Rise Set
Actual Time 5:31 AM MST 7:28 PM MST
Civil Twilight 5:04 AM MST 7:55 PM MST
Nautical Twilight 4:31 AM MST 8:28 PM MST
Astronomical Twilight 3:55 AM MST 9:04 PM MST
Moon 10:39 PM MST (7/21) 9:42 AM MST (7/21)
Length of Visible Light 14h 51m
Length of Day
13h 56m
Waning Gibbous, 79% of the Moon is Illuminated
Jul 21
Waning Gibbous
Jul 24
Last Quarter
Jul 31
New
Aug 7
First Quarter
Aug 15
Full

Hourly Weather History & Observations

Time (MST) Temp. Heat Index Dew Point Humidity Pressure Visibility Wind Dir Wind Speed Gust Speed Precip Events Conditions
12:53 AM 84.9 °F 85.0 °F 61.0 °F 44% 29.79 in 10.0 mi SE 5.8 mph - N/A   Clear
1:53 AM 84.0 °F 84.5 °F 62.1 °F 47% 29.79 in 10.0 mi SSE 8.1 mph - N/A   Clear
2:53 AM 82.9 °F 83.7 °F 62.1 °F 49% 29.79 in 10.0 mi South 6.9 mph - N/A   Clear
3:53 AM 82.0 °F 82.7 °F 61.0 °F 49% 29.80 in 10.0 mi South 5.8 mph - N/A   Clear
4:53 AM 82.0 °F 82.7 °F 61.0 °F 49% 29.81 in 10.0 mi South 5.8 mph - N/A   Clear
5:53 AM 81.0 °F 81.6 °F 60.1 °F 49% 29.83 in 10.0 mi SE 5.8 mph - N/A   Clear
6:53 AM 82.9 °F 83.2 °F 60.1 °F 46% 29.85 in 10.0 mi SSE 4.6 mph - N/A   Clear
7:53 AM 86.0 °F 86.1 °F 61.0 °F 43% 29.87 in 10.0 mi West 3.5 mph - N/A   Clear
8:53 AM 90.0 °F 90.3 °F 62.1 °F 39% 29.86 in 10.0 mi WNW 6.9 mph - N/A   Clear
9:53 AM 93.9 °F 93.6 °F 60.1 °F 32% 29.88 in 10.0 mi West 9.2 mph - N/A   Clear
10:53 AM 93.9 °F 93.2 °F 59.0 °F 31% 29.87 in 10.0 mi WNW 9.2 mph 17.3 mph N/A   Clear
11:53 AM 99.0 °F 97.7 °F 55.9 °F 24% 29.85 in 10.0 mi NW 11.5 mph - N/A   Clear
12:53 PM 99.0 °F 97.7 °F 55.9 °F 24% 29.83 in 10.0 mi Variable 3.5 mph - N/A   Clear
1:53 PM 102.0 °F 101.1 °F 55.9 °F 22% 29.81 in 10.0 mi WNW 10.4 mph - N/A   Clear
2:53 PM 102.0 °F 100.6 °F 55.0 °F 21% 29.79 in 10.0 mi North 11.5 mph 21.9 mph N/A   Clear
3:53 PM 102.9 °F - 52.0 °F 18% 29.77 in 10.0 mi NNW 11.5 mph - N/A   Clear
4:19 PM 100.0 °F 97.9 °F 53.1 °F 21% 29.93 in 10.0 mi NW 11.5 mph 24.2 mph N/A Thunderstorm Clear
4:53 PM 97.0 °F 96.1 °F 57.9 °F 27% 29.76 in 10.0 mi West 16.1 mph 26.5 mph N/A   Clear
5:53 PM 95.0 °F 94.4 °F 59.0 °F 30% 29.77 in 10.0 mi North - - N/A   Clear
6:53 PM 91.0 °F 90.2 °F 59.0 °F 34% 29.79 in 10.0 mi West 19.6 mph 29.9 mph N/A   Clear
7:53 PM 89.1 °F 88.0 °F 57.9 °F 35% 29.81 in 10.0 mi West 19.6 mph 27.6 mph N/A   Clear
8:53 PM 88.0 °F 86.7 °F 57.0 °F 35% 29.80 in 10.0 mi WSW 8.1 mph - N/A   Clear
9:53 PM 86.0 °F 85.4 °F 59.0 °F 40% 29.81 in 10.0 mi South 5.8 mph - N/A   Clear
10:53 PM 86.0 °F 85.7 °F 60.1 °F 41% 29.82 in 10.0 mi SSE 5.8 mph - N/A   Clear
11:53 PM 84.9 °F 84.8 °F 60.1 °F 43% 29.83 in 10.0 mi SSW 6.9 mph - N/A   Clear